QTR838 OTHH-VTBS

Flight info

Callsign QTR838
Flight time 5h 48m
Altitude 35000
Route KUPRO N300 NOLSU P307 VAXIM L301 KARKU M638 EXOLU L505 BUSBO L301 DOGEM/N0493F370 L301 DWI L877 MIGAR L524 IBETO DCT WILLA WILLA1D
Aircraft B77W/H-SDE1E2E3FGHIJ2J3J4J5M1RWXY/LB1D1

Departure

Time 2026-05-04 23:04
Airport Hamad International Airport (OTHH)

Arrival

Time 2026-05-05 04:52
Airport Suvarnabhumi Airport (VTBS)
Time Latitude Longitude Altitude Speed Heading
2026-05-04 22:21 25.26114 51.61060 27 ft 0 kts 158°
2026-05-04 22:48 25.26132 51.61052 27 ft 4 kts 158°
2026-05-04 22:48 25.26156 51.61040 24 ft 4 kts 150°
2026-05-04 22:48 25.26175 51.61026 25 ft 3 kts 139°
2026-05-04 22:48 25.26192 51.61013 25 ft 4 kts 173°
2026-05-04 22:49 25.26202 51.61012 25 ft 4 kts 224°
2026-05-04 22:49 25.26214 51.61032 24 ft 4 kts 248°
2026-05-04 22:49 25.26224 51.61060 25 ft 4 kts 249°
2026-05-04 22:49 25.26227 51.61071 25 ft 0 kts 248°
2026-05-04 22:52 25.26224 51.61063 27 ft 7 kts 248°
2026-05-04 22:53 25.26197 51.60989 27 ft 11 kts 248°
2026-05-04 22:53 25.26170 51.60914 27 ft 11 kts 248°
2026-05-04 22:53 25.26143 51.60838 27 ft 11 kts 248°
2026-05-04 22:53 25.26108 51.60743 27 ft 14 kts 248°
2026-05-04 22:54 25.26090 51.60643 26 ft 14 kts 292°
2026-05-04 22:54 25.26202 51.60570 26 ft 23 kts 339°
2026-05-04 22:54 25.26349 51.60507 26 ft 23 kts 338°
2026-05-04 22:54 25.26495 51.60440 31 ft 23 kts 337°
2026-05-04 22:55 25.26643 51.60374 29 ft 23 kts 338°
2026-05-04 22:55 25.26791 51.60310 30 ft 20 kts 338°
2026-05-04 22:55 25.26907 51.60257 30 ft 15 kts 340°
2026-05-04 22:55 25.26987 51.60298 26 ft 14 kts 65°
2026-05-04 22:56 25.27034 51.60420 27 ft 20 kts 69°
2026-05-04 22:56 25.27081 51.60560 27 ft 20 kts 69°
2026-05-04 22:56 25.27132 51.60700 27 ft 20 kts 65°
2026-05-04 22:56 25.27187 51.60837 27 ft 20 kts 72°
2026-05-04 22:57 25.27234 51.60977 27 ft 20 kts 69°
2026-05-04 22:57 25.27284 51.61117 27 ft 20 kts 68°
2026-05-04 22:57 25.27335 51.61256 27 ft 20 kts 68°
2026-05-04 22:57 25.27386 51.61392 27 ft 15 kts 70°
2026-05-04 22:58 25.27339 51.61484 27 ft 16 kts 153°
2026-05-04 22:58 25.27220 51.61537 27 ft 19 kts 158°
2026-05-04 22:58 25.27097 51.61592 27 ft 19 kts 158°
2026-05-04 22:58 25.26987 51.61665 27 ft 19 kts 115°
2026-05-04 22:59 25.26946 51.61765 27 ft 15 kts 148°
2026-05-04 22:59 25.26841 51.61812 27 ft 17 kts 158°
2026-05-04 22:59 25.26699 51.61876 27 ft 24 kts 158°
2026-05-04 22:59 25.26543 51.61945 27 ft 24 kts 158°
2026-05-04 23:00 25.26388 51.62014 27 ft 24 kts 158°
2026-05-04 23:00 25.26232 51.62082 27 ft 24 kts 159°
2026-05-04 23:00 25.26075 51.62151 28 ft 24 kts 158°
2026-05-04 23:00 25.25921 51.62221 27 ft 24 kts 158°
2026-05-04 23:01 25.25765 51.62289 27 ft 24 kts 159°
2026-05-04 23:01 25.25629 51.62347 27 ft 16 kts 159°
2026-05-04 23:01 25.25532 51.62389 27 ft 11 kts 159°
2026-05-04 23:01 25.25479 51.62445 27 ft 11 kts 103°
2026-05-04 23:02 25.25498 51.62531 27 ft 13 kts 68°
2026-05-04 23:02 25.25537 51.62621 27 ft 13 kts 54°
2026-05-04 23:02 25.25611 51.62662 28 ft 7 kts 357°
2026-05-04 23:02 25.25639 51.62653 28 ft 4 kts 342°
2026-05-04 23:03 25.25721 51.62619 27 ft 28 kts 339°
2026-05-04 23:03 25.26104 51.62446 27 ft 95 kts 338°
2026-05-04 23:03 25.26925 51.62089 28 ft 157 kts 338°
2026-05-04 23:03 25.28082 51.61574 233 ft 188 kts 337°
2026-05-04 23:04 25.29277 51.61028 914 ft 184 kts 338°
2026-05-04 23:04 25.30459 51.60524 1741 ft 179 kts 340°
2026-05-04 23:04 25.31230 51.60211 2147 ft 179 kts 338°
2026-05-04 23:04 25.32840 51.59506 2549 ft 193 kts 337°
2026-05-04 23:05 25.33696 51.59197 2734 ft 201 kts 350°
2026-05-04 23:05 25.35089 51.59505 2974 ft 219 kts 31°
2026-05-04 23:05 25.35998 51.60889 3364 ft 235 kts 73°
2026-05-04 23:05 25.36183 51.62755 3555 ft 256 kts 83°
2026-05-04 23:06 25.36322 51.64758 3921 ft 269 kts 81°
2026-05-04 23:06 25.36522 51.66887 3985 ft 283 kts 80°
2026-05-04 23:06 25.36754 51.69064 4395 ft 287 kts 80°
2026-05-04 23:06 25.36753 51.71288 4882 ft 296 kts 99°
2026-05-04 23:07 25.36275 51.73519 5483 ft 300 kts 102°
2026-05-04 23:07 25.35784 51.75772 6069 ft 307 kts 102°
2026-05-04 23:07 25.35301 51.78092 6626 ft 310 kts 101°
2026-05-04 23:07 25.34830 51.80418 7307 ft 311 kts 101°
2026-05-04 23:08 25.34361 51.82764 7964 ft 314 kts 101°
2026-05-04 23:08 25.33891 51.85129 8611 ft 316 kts 101°
2026-05-04 23:08 25.33416 51.87516 9275 ft 319 kts 101°
2026-05-04 23:08 25.32938 51.89917 9887 ft 321 kts 101°
2026-05-04 23:09 25.32453 51.92356 10329 ft 332 kts 101°
2026-05-04 23:09 25.31943 51.94917 10618 ft 348 kts 101°
2026-05-04 23:09 25.31423 51.97523 11128 ft 357 kts 101°
2026-05-04 23:09 25.30872 52.00283 11322 ft 379 kts 101°
2026-05-04 23:10 25.30290 52.03200 11561 ft 397 kts 101°
2026-05-04 23:10 25.29684 52.06220 12130 ft 406 kts 101°
2026-05-04 23:10 25.29069 52.09280 12829 ft 411 kts 101°
2026-05-04 23:10 25.28308 52.12328 13582 ft 415 kts 107°
2026-05-04 23:11 25.27355 52.15350 14246 ft 418 kts 109°
2026-05-04 23:11 25.26337 52.18383 14864 ft 423 kts 109°
2026-05-04 23:11 25.25312 52.21448 15446 ft 428 kts 109°
2026-05-04 23:11 25.24295 52.24560 16049 ft 433 kts 109°
2026-05-04 23:12 25.23284 52.27713 16674 ft 437 kts 109°
2026-05-04 23:12 25.22276 52.30898 17285 ft 442 kts 109°
2026-05-04 23:12 25.21260 52.34123 17900 ft 446 kts 109°
2026-05-04 23:12 25.20233 52.37377 18441 ft 450 kts 109°
2026-05-04 23:13 25.19196 52.40652 19008 ft 453 kts 109°
2026-05-04 23:13 25.18155 52.43949 19593 ft 456 kts 109°
2026-05-04 23:13 25.17111 52.47261 20182 ft 458 kts 109°
2026-05-04 23:13 25.16075 52.50548 20730 ft 461 kts 109°
2026-05-04 23:14 25.15013 52.53911 21277 ft 465 kts 109°
2026-05-04 23:14 25.13946 52.57288 21822 ft 468 kts 109°
2026-05-04 23:14 25.12788 52.60659 22350 ft 471 kts 114°
2026-05-04 23:14 25.11326 52.63914 22845 ft 475 kts 118°
2026-05-04 23:15 25.09745 52.67125 23355 ft 478 kts 118°
2026-05-04 23:15 25.08187 52.70386 23764 ft 482 kts 117°
2026-05-04 23:15 25.06683 52.73701 24130 ft 486 kts 115°
2026-05-04 23:15 25.05394 52.77170 24474 ft 491 kts 110°
2026-05-04 23:16 25.04424 52.80792 24826 ft 495 kts 104°
2026-05-04 23:16 25.03621 52.84497 25177 ft 499 kts 103°
2026-05-04 23:16 25.02818 52.88235 25521 ft 503 kts 103°
2026-05-04 23:16 25.01996 52.91995 25867 ft 507 kts 104°
2026-05-04 23:17 25.01149 52.95781 26205 ft 510 kts 104°
2026-05-04 23:17 25.00285 52.99587 26560 ft 514 kts 104°
2026-05-04 23:17 24.99411 53.03418 26896 ft 517 kts 104°
2026-05-04 23:17 24.98529 53.07284 27206 ft 521 kts 104°
2026-05-04 23:18 24.97633 53.11171 27517 ft 525 kts 105°
2026-05-04 23:18 24.96726 53.15081 27827 ft 528 kts 105°
2026-05-04 23:18 24.95823 53.18962 28118 ft 531 kts 105°
2026-05-04 23:18 24.94904 53.22913 28399 ft 534 kts 105°
2026-05-04 23:19 24.93979 53.26890 28675 ft 537 kts 105°
2026-05-04 23:19 24.93050 53.30884 28930 ft 540 kts 105°
2026-05-04 23:19 24.92115 53.34903 29187 ft 542 kts 105°
2026-05-04 23:19 24.91175 53.38934 29444 ft 544 kts 105°
2026-05-04 23:20 24.90224 53.42981 29775 ft 545 kts 106°
2026-05-04 23:20 24.89191 53.46987 30095 ft 544 kts 108°
2026-05-04 23:20 24.88089 53.50974 30433 ft 543 kts 108°
2026-05-04 23:20 24.86968 53.54939 30780 ft 542 kts 108°
2026-05-04 23:21 24.85853 53.58894 31125 ft 541 kts 108°
2026-05-04 23:21 24.84751 53.62851 31467 ft 540 kts 108°
2026-05-04 23:21 24.83660 53.66809 31784 ft 540 kts 108°
2026-05-04 23:21 24.82579 53.70760 32115 ft 539 kts 108°
2026-05-04 23:22 24.81500 53.74709 32468 ft 538 kts 108°
2026-05-04 23:22 24.80428 53.78632 32991 ft 532 kts 109°
2026-05-04 23:22 24.79363 53.82514 33444 ft 529 kts 109°
2026-05-04 23:22 24.78296 53.86397 33702 ft 530 kts 109°
2026-05-04 23:23 24.77225 53.90284 33887 ft 532 kts 109°
2026-05-04 23:23 24.76186 53.94186 34093 ft 532 kts 104°
2026-05-04 23:23 24.75631 53.98213 34291 ft 534 kts 94°
2026-05-04 23:23 24.75685 54.02306 34530 ft 535 kts 84°
2026-05-04 23:24 24.76263 54.06343 34652 ft 536 kts 74°
2026-05-04 23:24 24.77357 54.10266 34759 ft 536 kts 71°
2026-05-04 23:24 24.79732 54.18064 34746 ft 535 kts 71°
2026-05-04 23:25 24.82002 54.25839 34739 ft 532 kts 72°
2026-05-04 23:25 24.84170 54.33553 34742 ft 530 kts 72°
2026-05-04 23:26 24.86350 54.41295 34748 ft 529 kts 72°
2026-05-04 23:26 24.88550 54.49038 34751 ft 530 kts 72°
2026-05-04 23:27 24.90758 54.56813 34752 ft 532 kts 72°
2026-05-04 23:27 24.92954 54.64611 34756 ft 534 kts 73°
2026-05-04 23:28 24.94596 54.72601 34759 ft 536 kts 78°
2026-05-04 23:28 24.96061 54.80661 34758 ft 537 kts 78°
2026-05-04 23:29 24.97589 54.88718 34759 ft 537 kts 78°
2026-05-04 23:29 24.99104 54.96784 34768 ft 537 kts 78°
2026-05-04 23:30 25.00609 55.04839 34770 ft 536 kts 78°
2026-05-04 23:30 25.01993 55.12267 34775 ft 536 kts 78°
2026-05-04 23:31 25.03488 55.20306 34772 ft 535 kts 78°
2026-05-04 23:31 25.05004 55.28340 34768 ft 535 kts 77°
2026-05-04 23:32 25.06516 55.36310 34734 ft 534 kts 77°
2026-05-04 23:32 25.08028 55.44340 34732 ft 534 kts 78°
2026-05-04 23:33 25.09533 55.52367 34739 ft 534 kts 77°
2026-05-04 23:33 25.11025 55.60405 34753 ft 535 kts 78°
2026-05-04 23:34 25.12486 55.68456 34749 ft 535 kts 78°
2026-05-04 23:34 25.13947 55.76507 34752 ft 535 kts 78°
2026-05-04 23:35 25.15529 55.84518 34755 ft 535 kts 76°
2026-05-04 23:35 25.17203 55.92525 34750 ft 535 kts 76°
2026-05-04 23:36 25.18842 56.00540 34740 ft 535 kts 76°
2026-05-04 23:36 25.20294 56.08591 34725 ft 535 kts 85°
2026-05-04 23:37 25.19911 56.16716 34730 ft 533 kts 102°
2026-05-04 23:37 25.17710 56.24471 34739 ft 530 kts 112°
2026-05-04 23:38 25.15128 56.32097 34738 ft 531 kts 112°
2026-05-04 23:38 25.12620 56.39793 34727 ft 533 kts 111°
2026-05-04 23:39 25.10158 56.47509 34730 ft 533 kts 111°
2026-05-04 23:39 25.07669 56.55222 34726 ft 533 kts 112°
2026-05-04 23:40 25.04908 56.62808 34725 ft 532 kts 115°
2026-05-04 23:40 25.02036 56.70331 34725 ft 532 kts 115°
2026-05-04 23:41 24.99198 56.77858 34729 ft 531 kts 114°
2026-05-04 23:41 24.96398 56.85381 34730 ft 530 kts 114°
2026-05-04 23:42 24.93624 56.92849 34737 ft 529 kts 114°
2026-05-04 23:42 24.90829 57.00351 34735 ft 529 kts 114°
2026-05-04 23:43 24.88032 57.07838 34737 ft 528 kts 114°
2026-05-04 23:43 24.85232 57.15316 34738 ft 528 kts 114°
2026-05-04 23:44 24.82428 57.22794 34734 ft 528 kts 114°
2026-05-04 23:44 24.79622 57.30263 34735 ft 528 kts 114°
2026-05-04 23:45 24.76814 57.37726 34737 ft 528 kts 114°
2026-05-04 23:45 24.74004 57.45179 34737 ft 527 kts 114°
2026-05-04 23:46 24.71192 57.52625 34737 ft 527 kts 114°
2026-05-04 23:46 24.68378 57.60065 34736 ft 527 kts 114°
2026-05-04 23:47 24.65564 57.67494 34733 ft 526 kts 114°
2026-05-04 23:47 24.62747 57.74916 34732 ft 526 kts 114°
2026-05-04 23:48 24.59927 57.82328 34733 ft 526 kts 114°
2026-05-04 23:48 24.57102 57.89745 34740 ft 525 kts 114°
2026-05-04 23:49 24.54293 57.97113 34735 ft 525 kts 114°
2026-05-04 23:49 24.51467 58.04511 34733 ft 525 kts 114°
2026-05-04 23:50 24.48639 58.11901 34737 ft 525 kts 114°
2026-05-04 23:50 24.45803 58.19299 34741 ft 525 kts 114°
2026-05-04 23:51 24.42968 58.26680 34748 ft 525 kts 114°
2026-05-04 23:51 24.40125 58.34072 34731 ft 525 kts 114°
2026-05-04 23:52 24.37766 58.40197 34743 ft 525 kts 114°
2026-05-04 23:52 24.34920 58.47576 34741 ft 525 kts 114°
2026-05-04 23:53 24.32068 58.54955 34734 ft 525 kts 114°
2026-05-04 23:53 24.29227 58.62282 34734 ft 525 kts 114°
2026-05-04 23:54 24.26368 58.69643 34745 ft 524 kts 114°
2026-05-04 23:54 24.23503 58.77008 34748 ft 524 kts 114°
2026-05-04 23:55 24.20636 58.84372 34732 ft 524 kts 114°
2026-05-04 23:56 24.16358 58.95334 34738 ft 524 kts 114°
2026-05-04 23:56 24.13485 59.02678 34742 ft 524 kts 114°
2026-05-04 23:57 24.10616 59.10004 34742 ft 524 kts 114°
2026-05-04 23:57 24.07740 59.17332 34741 ft 524 kts 114°
2026-05-04 23:58 24.04862 59.24657 34741 ft 524 kts 114°
2026-05-04 23:58 24.01979 59.31982 34736 ft 524 kts 114°
2026-05-04 23:59 23.99194 59.39284 34735 ft 524 kts 113°
2026-05-04 23:59 23.96490 59.46692 34739 ft 524 kts 112°
2026-05-05 00:00 23.93777 59.54089 34741 ft 524 kts 113°
2026-05-05 00:00 23.91042 59.61472 34744 ft 524 kts 113°
2026-05-05 00:01 23.88300 59.68847 34753 ft 524 kts 113°
2026-05-05 00:01 23.85556 59.76225 34748 ft 524 kts 113°
2026-05-05 00:02 23.82826 59.83548 34748 ft 524 kts 113°
2026-05-05 00:02 23.80062 59.90932 34747 ft 524 kts 113°
2026-05-05 00:03 23.77304 59.98291 34755 ft 524 kts 113°
2026-05-05 00:03 23.74540 60.05655 34754 ft 524 kts 113°
2026-05-05 00:04 23.71772 60.13021 34746 ft 524 kts 113°
2026-05-05 00:04 23.69019 60.20334 34751 ft 524 kts 113°
2026-05-05 00:05 23.66246 60.27688 34753 ft 524 kts 113°
2026-05-05 00:05 23.63470 60.35037 34750 ft 523 kts 113°
2026-05-05 00:06 23.60693 60.42377 34749 ft 523 kts 113°
2026-05-05 00:06 23.57913 60.49712 34752 ft 523 kts 113°
2026-05-05 00:07 23.55131 60.57040 34758 ft 523 kts 113°
2026-05-05 00:07 23.52340 60.64381 34757 ft 523 kts 113°
2026-05-05 00:08 23.49568 60.71660 34755 ft 523 kts 113°
2026-05-05 00:08 23.46775 60.78982 34762 ft 523 kts 113°
2026-05-05 00:09 23.43976 60.86307 34753 ft 523 kts 113°
2026-05-05 00:09 23.41176 60.93623 34761 ft 523 kts 113°
2026-05-05 00:10 23.38372 61.00939 34768 ft 523 kts 114°
2026-05-05 00:10 23.35566 61.08249 34763 ft 523 kts 114°
2026-05-05 00:11 23.32857 61.15606 34765 ft 524 kts 108°
2026-05-05 00:11 23.31177 61.23263 34768 ft 524 kts 98°
2026-05-05 00:12 23.30461 61.31150 34763 ft 524 kts 95°
2026-05-05 00:12 23.29827 61.39060 34768 ft 525 kts 95°
2026-05-05 00:13 23.29153 61.46971 34765 ft 525 kts 95°
2026-05-05 00:13 23.28446 61.54877 34760 ft 525 kts 95°
2026-05-05 00:14 23.27726 61.62781 34768 ft 526 kts 95°
2026-05-05 00:14 23.27003 61.70698 34764 ft 526 kts 95°
2026-05-05 00:15 23.26280 61.78606 34774 ft 526 kts 95°
2026-05-05 00:15 23.25553 61.86517 34767 ft 526 kts 96°
2026-05-05 00:16 23.24821 61.94429 34770 ft 526 kts 96°
2026-05-05 00:16 23.24086 62.02330 34777 ft 525 kts 96°
2026-05-05 00:17 23.23347 62.10237 34771 ft 525 kts 96°
2026-05-05 00:17 23.22605 62.18131 34773 ft 525 kts 96°
2026-05-05 00:18 23.21863 62.25977 34783 ft 525 kts 96°
2026-05-05 00:18 23.21113 62.33874 34783 ft 525 kts 96°
2026-05-05 00:19 23.20358 62.41775 34779 ft 525 kts 96°
2026-05-05 00:19 23.19600 62.49669 34785 ft 525 kts 96°
2026-05-05 00:20 23.18838 62.57558 34785 ft 525 kts 96°
2026-05-05 00:20 23.18071 62.65466 34779 ft 525 kts 96°
2026-05-05 00:21 23.17306 62.73304 34781 ft 525 kts 96°
2026-05-05 00:21 23.16532 62.81192 34789 ft 525 kts 96°
2026-05-05 00:22 23.15754 62.89085 34780 ft 525 kts 96°
2026-05-05 00:22 23.14973 62.96972 34781 ft 525 kts 96°
2026-05-05 00:23 23.14187 63.04860 34785 ft 525 kts 96°
2026-05-05 00:23 23.13398 63.12745 34779 ft 525 kts 96°
2026-05-05 00:24 23.12605 63.20625 34784 ft 525 kts 96°
2026-05-05 00:24 23.11808 63.28500 34785 ft 525 kts 96°
2026-05-05 00:25 23.11008 63.36376 34775 ft 524 kts 96°
2026-05-05 00:25 23.10209 63.44202 34779 ft 524 kts 96°
2026-05-05 00:26 23.09400 63.52078 34785 ft 524 kts 96°
2026-05-05 00:26 23.08588 63.59951 34787 ft 524 kts 96°
2026-05-05 00:27 23.07773 63.67819 34775 ft 525 kts 96°
2026-05-05 00:27 23.06952 63.75699 34784 ft 525 kts 96°
2026-05-05 00:28 23.06069 63.83560 34782 ft 525 kts 100°
2026-05-05 00:28 23.04208 63.91224 34779 ft 525 kts 111°
2026-05-05 00:29 23.01435 63.98553 34786 ft 525 kts 113°
2026-05-05 00:29 22.98603 64.05870 34788 ft 526 kts 113°
2026-05-05 00:30 22.95803 64.13200 34785 ft 526 kts 113°
2026-05-05 00:30 22.93022 64.20552 34786 ft 527 kts 112°
2026-05-05 00:31 22.90240 64.27913 34779 ft 527 kts 112°
2026-05-05 00:31 22.87475 64.35212 34779 ft 526 kts 112°
2026-05-05 00:32 22.84687 64.42553 34783 ft 526 kts 112°
2026-05-05 00:32 22.81898 64.49881 34782 ft 526 kts 112°
2026-05-05 00:33 22.79105 64.57209 34785 ft 526 kts 112°
2026-05-05 00:33 22.76313 64.64523 34781 ft 525 kts 113°
2026-05-05 00:34 22.73515 64.71841 34782 ft 525 kts 113°
2026-05-05 00:34 22.70718 64.79145 34785 ft 525 kts 113°
2026-05-05 00:35 22.67916 64.86453 34787 ft 525 kts 113°
2026-05-05 00:35 22.65111 64.93752 34788 ft 525 kts 113°
2026-05-05 00:36 22.62305 65.01045 34787 ft 525 kts 113°
2026-05-05 00:36 22.59494 65.08341 34784 ft 525 kts 113°
2026-05-05 00:37 22.56677 65.15639 34792 ft 525 kts 113°
2026-05-05 00:37 22.53873 65.22890 34780 ft 525 kts 113°
2026-05-05 00:38 22.51050 65.30181 34782 ft 525 kts 113°
2026-05-05 00:38 22.48224 65.37469 34797 ft 525 kts 113°
2026-05-05 00:39 22.45393 65.44756 34789 ft 526 kts 113°
2026-05-05 00:39 22.42560 65.52038 34783 ft 525 kts 113°
2026-05-05 00:40 22.39724 65.59318 34789 ft 525 kts 113°
2026-05-05 00:40 22.37363 65.65368 34790 ft 526 kts 113°
2026-05-05 00:41 22.34518 65.72650 34794 ft 526 kts 113°
2026-05-05 00:41 22.31667 65.79934 34791 ft 526 kts 113°
2026-05-05 00:42 22.28816 65.87208 34790 ft 526 kts 113°
2026-05-05 00:42 22.25962 65.94480 34789 ft 526 kts 113°
2026-05-05 00:43 22.23102 66.01753 34790 ft 526 kts 113°
2026-05-05 00:43 22.20236 66.09033 34790 ft 526 kts 113°
2026-05-05 00:44 22.17370 66.16299 34793 ft 526 kts 113°
2026-05-05 00:44 22.14502 66.23562 34796 ft 526 kts 113°
2026-05-05 00:45 22.11628 66.30826 34802 ft 526 kts 113°
2026-05-05 00:45 22.08754 66.38084 34793 ft 526 kts 113°
2026-05-05 00:46 22.05874 66.45344 34792 ft 526 kts 113°
2026-05-05 00:46 22.03011 66.52546 34796 ft 526 kts 113°
2026-05-05 00:47 22.00122 66.59798 34799 ft 526 kts 113°
2026-05-05 00:47 21.97229 66.67049 34798 ft 527 kts 113°
2026-05-05 00:48 21.94334 66.74300 34800 ft 527 kts 113°
2026-05-05 00:48 21.91434 66.81553 34791 ft 527 kts 113°
2026-05-05 00:49 21.88532 66.88798 34799 ft 527 kts 113°
2026-05-05 00:49 21.85627 66.96041 34805 ft 527 kts 114°
2026-05-05 00:50 21.82718 67.03283 34805 ft 527 kts 114°
2026-05-05 00:50 21.79809 67.10514 34803 ft 527 kts 114°
2026-05-05 00:51 21.76895 67.17748 34801 ft 527 kts 114°
2026-05-05 00:51 21.73978 67.24977 34808 ft 527 kts 114°
2026-05-05 00:52 21.71073 67.32165 34808 ft 527 kts 114°
2026-05-05 00:52 21.68151 67.39387 34812 ft 527 kts 114°
2026-05-05 00:53 21.65224 67.46607 34811 ft 527 kts 114°
2026-05-05 00:53 21.62294 67.53827 34812 ft 527 kts 114°
2026-05-05 00:54 21.59362 67.61039 34811 ft 527 kts 114°
2026-05-05 00:54 21.56428 67.68249 34813 ft 527 kts 114°
2026-05-05 00:55 21.53491 67.75453 34812 ft 527 kts 114°
2026-05-05 00:55 21.50548 67.82660 34815 ft 527 kts 114°
2026-05-05 00:56 21.47606 67.89856 34816 ft 527 kts 114°
2026-05-05 00:56 21.44657 67.97059 34813 ft 527 kts 114°
2026-05-05 00:57 21.41707 68.04253 34821 ft 527 kts 114°
2026-05-05 00:57 21.38749 68.11456 34817 ft 527 kts 114°
2026-05-05 00:58 21.35789 68.18656 34820 ft 527 kts 114°
2026-05-05 00:58 21.32827 68.25847 34822 ft 527 kts 114°
2026-05-05 00:59 21.29881 68.32993 34824 ft 527 kts 114°
2026-05-05 00:59 21.26913 68.40178 34826 ft 527 kts 114°
2026-05-05 01:00 21.23944 68.47358 34820 ft 527 kts 114°
2026-05-05 01:00 21.20970 68.54537 34827 ft 527 kts 114°
2026-05-05 01:01 21.17994 68.61714 34834 ft 527 kts 114°
2026-05-05 01:01 21.15009 68.68900 34828 ft 528 kts 114°
2026-05-05 01:02 21.12022 68.76081 34828 ft 528 kts 114°
2026-05-05 01:02 21.09033 68.83258 34830 ft 528 kts 114°
2026-05-05 01:03 21.06038 68.90440 34827 ft 528 kts 114°
2026-05-05 01:03 21.03043 68.97611 34826 ft 527 kts 114°
2026-05-05 01:04 21.00067 69.04728 34834 ft 527 kts 114°
2026-05-05 01:04 20.95930 69.15615 34837 ft 527 kts 108°
2026-05-05 01:05 20.93715 69.23089 34835 ft 527 kts 107°
2026-05-05 01:05 20.91516 69.30569 34832 ft 527 kts 107°
2026-05-05 01:06 20.89279 69.38040 34839 ft 527 kts 108°
2026-05-05 01:06 20.87020 69.45497 34836 ft 528 kts 108°
2026-05-05 01:07 20.84753 69.52960 34835 ft 528 kts 108°
2026-05-05 01:07 20.82485 69.60421 34838 ft 528 kts 108°
2026-05-05 01:08 20.80214 69.67883 34836 ft 528 kts 108°
2026-05-05 01:08 20.77942 69.75336 34840 ft 528 kts 108°
2026-05-05 01:09 20.75665 69.82794 34841 ft 528 kts 108°
2026-05-05 01:09 20.73388 69.90239 34840 ft 527 kts 108°
2026-05-05 01:10 20.71107 69.97683 34843 ft 527 kts 108°
2026-05-05 01:10 20.68822 70.05127 34843 ft 527 kts 108°
2026-05-05 01:11 20.66535 70.12567 34844 ft 527 kts 108°
2026-05-05 01:11 20.64260 70.19955 34846 ft 527 kts 108°
2026-05-05 01:12 20.61967 70.27389 34847 ft 527 kts 108°
2026-05-05 01:12 20.59671 70.34820 34845 ft 527 kts 108°
2026-05-05 01:13 20.57369 70.42257 34845 ft 527 kts 108°
2026-05-05 01:13 20.55063 70.49695 34847 ft 527 kts 108°
2026-05-05 01:14 20.52755 70.57125 34848 ft 527 kts 108°
2026-05-05 01:14 20.50444 70.64555 34847 ft 527 kts 108°
2026-05-05 01:15 20.48132 70.71976 34852 ft 527 kts 108°
2026-05-05 01:15 20.45815 70.79399 34853 ft 527 kts 108°
2026-05-05 01:16 20.43497 70.86813 34853 ft 527 kts 108°
2026-05-05 01:16 20.41187 70.94190 34853 ft 527 kts 108°
2026-05-05 01:17 20.38862 71.01604 34852 ft 527 kts 108°
2026-05-05 01:17 20.36532 71.09020 34852 ft 527 kts 108°
2026-05-05 01:18 20.34199 71.16434 34851 ft 527 kts 108°
2026-05-05 01:18 20.31863 71.23845 34853 ft 527 kts 108°
2026-05-05 01:19 20.29523 71.31258 34852 ft 527 kts 108°
2026-05-05 01:19 20.27181 71.38663 34855 ft 527 kts 108°
2026-05-05 01:20 20.24854 71.46011 34856 ft 527 kts 108°
2026-05-05 01:20 20.22512 71.53398 34855 ft 527 kts 108°
2026-05-05 01:21 20.20223 71.60809 34854 ft 526 kts 106°
2026-05-05 01:21 20.18215 71.68296 34854 ft 526 kts 105°
2026-05-05 01:22 20.16259 71.75806 34855 ft 526 kts 105°
2026-05-05 01:22 20.14261 71.83295 34856 ft 526 kts 105°
2026-05-05 01:23 20.12233 71.90768 34852 ft 526 kts 106°
2026-05-05 01:23 20.10193 71.98241 34858 ft 526 kts 106°
2026-05-05 01:24 20.08154 72.05710 34859 ft 526 kts 106°
2026-05-05 01:24 20.06112 72.13184 34857 ft 526 kts 106°
2026-05-05 01:25 20.04069 72.20649 34858 ft 526 kts 106°
2026-05-05 01:25 20.02022 72.28117 34858 ft 526 kts 106°
2026-05-05 01:26 19.99986 72.35531 34858 ft 525 kts 106°
2026-05-05 01:26 19.97937 72.42981 34856 ft 525 kts 106°
2026-05-05 01:27 19.95881 72.50442 34861 ft 525 kts 106°
2026-05-05 01:27 19.93824 72.57892 34860 ft 525 kts 106°
2026-05-05 01:28 19.91762 72.65347 34863 ft 525 kts 106°
2026-05-05 01:28 19.90047 72.71536 34865 ft 525 kts 106°
2026-05-05 01:29 19.87980 72.78987 34865 ft 525 kts 106°
2026-05-05 01:29 19.85909 72.86436 34868 ft 525 kts 106°
2026-05-05 01:30 19.83839 72.93873 34877 ft 525 kts 106°
2026-05-05 01:30 19.81760 73.01326 34879 ft 525 kts 106°
2026-05-05 01:31 19.79681 73.08764 34885 ft 525 kts 106°
2026-05-05 01:31 19.77600 73.16200 34890 ft 525 kts 106°
2026-05-05 01:32 19.75517 73.23627 34892 ft 525 kts 106°
2026-05-05 01:32 19.73445 73.31006 34900 ft 525 kts 106°
2026-05-05 01:33 19.71357 73.38427 34906 ft 525 kts 106°
2026-05-05 01:33 19.69271 73.45833 34912 ft 524 kts 106°
2026-05-05 01:34 19.67179 73.53242 34921 ft 524 kts 107°
2026-05-05 01:34 19.65083 73.60656 34924 ft 524 kts 107°
2026-05-05 01:35 19.63462 73.68186 34931 ft 523 kts 97°
2026-05-05 01:35 19.63010 73.75887 34938 ft 522 kts 90°
2026-05-05 01:36 19.62852 73.83588 34928 ft 523 kts 90°
2026-05-05 01:36 19.62661 73.91264 34931 ft 524 kts 91°
2026-05-05 01:37 19.62428 73.98989 34924 ft 524 kts 91°
2026-05-05 01:37 19.62182 74.06717 34919 ft 524 kts 91°
2026-05-05 01:38 19.61934 74.14445 34922 ft 524 kts 91°
2026-05-05 01:38 19.61685 74.22180 34916 ft 524 kts 91°
2026-05-05 01:39 19.61435 74.29908 34919 ft 524 kts 91°
2026-05-05 01:39 19.61180 74.37638 34914 ft 524 kts 91°
2026-05-05 01:40 19.60922 74.45369 34915 ft 524 kts 91°
2026-05-05 01:40 19.60662 74.53091 34911 ft 524 kts 91°
2026-05-05 01:41 19.60116 74.60803 34912 ft 524 kts 95°
2026-05-05 01:41 19.59339 74.68490 34912 ft 524 kts 96°
2026-05-05 01:42 19.58555 74.76173 34910 ft 524 kts 95°
2026-05-05 01:42 19.57797 74.83874 34911 ft 525 kts 95°
2026-05-05 01:43 19.57050 74.91569 34910 ft 525 kts 95°
2026-05-05 01:43 19.56304 74.99208 34910 ft 525 kts 95°
2026-05-05 01:44 19.55548 75.06906 34895 ft 525 kts 95°
2026-05-05 01:44 19.54788 75.14601 34897 ft 525 kts 95°
2026-05-05 01:45 19.54023 75.22303 34890 ft 525 kts 96°
2026-05-05 01:45 19.53256 75.29998 34893 ft 525 kts 96°
2026-05-05 01:46 19.52485 75.37698 34893 ft 525 kts 96°
2026-05-05 01:46 19.51712 75.45394 34890 ft 525 kts 96°
2026-05-05 01:47 19.50935 75.53093 34889 ft 525 kts 96°
2026-05-05 01:47 19.50155 75.60795 34896 ft 525 kts 96°
2026-05-05 01:48 19.49376 75.68501 34893 ft 525 kts 96°
2026-05-05 01:48 19.48609 75.76205 34894 ft 525 kts 96°
2026-05-05 01:49 19.47841 75.83910 34898 ft 525 kts 96°
2026-05-05 01:49 19.47067 75.91609 34895 ft 526 kts 96°
2026-05-05 01:50 19.46294 75.99265 34901 ft 526 kts 96°
2026-05-05 01:50 19.45513 76.06963 34897 ft 526 kts 96°
2026-05-05 01:51 19.44728 76.14661 34900 ft 526 kts 96°
2026-05-05 01:51 19.43940 76.22363 34896 ft 526 kts 96°
2026-05-05 01:52 19.43145 76.30099 34910 ft 532 kts 96°
2026-05-05 01:52 19.42337 76.37937 34906 ft 538 kts 96°
2026-05-05 01:53 19.41518 76.45838 34902 ft 541 kts 96°
2026-05-05 01:53 19.40693 76.53769 34901 ft 543 kts 96°
2026-05-05 01:54 19.39861 76.61725 34897 ft 542 kts 96°
2026-05-05 01:54 19.39029 76.69650 34896 ft 541 kts 96°
2026-05-05 01:55 19.38202 76.77510 34896 ft 539 kts 96°
2026-05-05 01:55 19.37373 76.85395 34897 ft 538 kts 96°
2026-05-05 01:56 19.36615 76.93278 34901 ft 538 kts 96°
2026-05-05 01:56 19.35881 77.01161 34904 ft 538 kts 96°
2026-05-05 01:57 19.35135 77.09050 34906 ft 538 kts 96°
2026-05-05 01:57 19.34376 77.16939 34906 ft 539 kts 96°
2026-05-05 01:58 19.33610 77.24848 34904 ft 540 kts 96°
2026-05-05 01:58 19.32841 77.32755 34902 ft 541 kts 96°
2026-05-05 01:59 19.32067 77.40689 34908 ft 541 kts 96°
2026-05-05 01:59 19.31289 77.48623 34907 ft 542 kts 96°
2026-05-05 02:00 19.30512 77.56507 34901 ft 542 kts 96°
2026-05-05 02:00 19.29727 77.64449 34904 ft 542 kts 96°
2026-05-05 02:01 19.28938 77.72387 34905 ft 542 kts 96°
2026-05-05 02:01 19.28146 77.80321 34894 ft 541 kts 97°
2026-05-05 02:02 19.27353 77.88238 34903 ft 540 kts 97°
2026-05-05 02:02 19.26557 77.96140 34906 ft 540 kts 97°
2026-05-05 02:03 19.25764 78.03993 34905 ft 539 kts 97°
2026-05-05 02:03 19.24877 78.11872 34900 ft 539 kts 101°
2026-05-05 02:04 19.23026 78.19522 34905 ft 536 kts 109°
2026-05-05 02:04 19.20793 78.27061 34902 ft 537 kts 109°
2026-05-05 02:05 19.18575 78.34601 34912 ft 537 kts 109°
2026-05-05 02:05 19.16394 78.42158 34903 ft 537 kts 108°
2026-05-05 02:06 19.14230 78.49704 34902 ft 537 kts 108°
2026-05-05 02:06 19.12062 78.57252 34916 ft 536 kts 108°
2026-05-05 02:07 19.09888 78.64793 34917 ft 535 kts 108°
2026-05-05 02:07 19.07727 78.72272 34903 ft 535 kts 108°
2026-05-05 02:08 19.05538 78.79836 34910 ft 534 kts 109°
2026-05-05 02:08 19.03375 78.87297 34906 ft 534 kts 109°
2026-05-05 02:09 19.01196 78.94801 34908 ft 533 kts 109°
2026-05-05 02:09 18.99015 79.02303 34904 ft 533 kts 109°
2026-05-05 02:10 18.96832 79.09795 34897 ft 532 kts 109°
2026-05-05 02:10 18.94666 79.17218 34899 ft 532 kts 109°
2026-05-05 02:11 18.92484 79.24686 34895 ft 532 kts 109°
2026-05-05 02:11 18.90297 79.32156 34894 ft 532 kts 109°
2026-05-05 02:12 18.87015 79.43344 34887 ft 531 kts 109°
2026-05-05 02:13 18.84824 79.50800 34886 ft 531 kts 109°
2026-05-05 02:13 18.82634 79.58239 34883 ft 530 kts 109°
2026-05-05 02:14 18.80442 79.65673 34881 ft 530 kts 109°
2026-05-05 02:14 18.78264 79.73049 34874 ft 530 kts 109°
2026-05-05 02:15 18.76068 79.80472 34877 ft 530 kts 109°
2026-05-05 02:15 18.73870 79.87892 34873 ft 530 kts 109°
2026-05-05 02:16 18.71666 79.95321 34870 ft 530 kts 109°
2026-05-05 02:16 18.69471 80.02703 34870 ft 530 kts 109°
2026-05-05 02:17 18.67262 80.10125 34873 ft 530 kts 109°
2026-05-05 02:17 18.65417 80.16314 34868 ft 531 kts 109°
2026-05-05 02:18 18.63199 80.23747 34872 ft 531 kts 109°
2026-05-05 02:18 18.60612 80.32395 34873 ft 531 kts 109°
2026-05-05 02:19 18.58760 80.38580 34879 ft 532 kts 109°
2026-05-05 02:19 18.56530 80.46017 34880 ft 532 kts 109°
2026-05-05 02:20 18.54299 80.53448 34883 ft 532 kts 109°
2026-05-05 02:20 18.52047 80.60880 34887 ft 531 kts 110°
2026-05-05 02:21 18.49686 80.68270 34886 ft 531 kts 110°
2026-05-05 02:21 18.47313 80.75586 34889 ft 531 kts 110°
2026-05-05 02:22 18.44937 80.82951 34885 ft 530 kts 110°
2026-05-05 02:22 18.42576 80.90298 34894 ft 530 kts 110°
2026-05-05 02:23 18.40215 80.97647 34897 ft 529 kts 110°
2026-05-05 02:23 18.37852 81.04985 34897 ft 529 kts 110°
2026-05-05 02:24 18.35484 81.12323 34902 ft 529 kts 110°
2026-05-05 02:24 18.33127 81.19620 34900 ft 529 kts 111°
2026-05-05 02:25 18.30752 81.26959 34902 ft 529 kts 111°
2026-05-05 02:25 18.28377 81.34287 34906 ft 529 kts 111°
2026-05-05 02:26 18.25999 81.41616 34900 ft 529 kts 111°
2026-05-05 02:26 18.23617 81.48947 34901 ft 529 kts 111°
2026-05-05 02:27 18.21248 81.56226 34906 ft 528 kts 111°
2026-05-05 02:27 18.18865 81.63540 34905 ft 528 kts 111°
2026-05-05 02:28 18.16480 81.70846 34907 ft 528 kts 111°
2026-05-05 02:28 18.14091 81.78155 34913 ft 528 kts 111°
2026-05-05 02:29 18.11699 81.85466 34918 ft 528 kts 111°
2026-05-05 02:29 18.09322 81.92721 34923 ft 528 kts 111°
2026-05-05 02:30 18.06929 82.00013 34931 ft 528 kts 111°
2026-05-05 02:30 18.04591 82.07320 34938 ft 528 kts 110°
2026-05-05 02:31 18.02287 82.14658 34945 ft 527 kts 110°
2026-05-05 02:31 17.99985 82.21968 34960 ft 526 kts 110°
2026-05-05 02:32 17.97669 82.29277 34949 ft 527 kts 110°
2026-05-05 02:32 17.95364 82.36528 34960 ft 526 kts 110°
2026-05-05 02:33 17.93042 82.43821 34960 ft 527 kts 110°
2026-05-05 02:33 17.90717 82.51119 35344 ft 524 kts 110°
2026-05-05 02:33 17.89565 82.54735 35679 ft 521 kts 110°
2026-05-05 02:34 17.88418 82.58331 35960 ft 519 kts 110°
2026-05-05 02:34 17.87271 82.61924 36167 ft 518 kts 111°
2026-05-05 02:34 17.86124 82.65510 36351 ft 518 kts 110°
2026-05-05 02:34 17.84975 82.69099 36597 ft 518 kts 111°
2026-05-05 02:35 17.83828 82.72683 36835 ft 518 kts 111°
2026-05-05 02:35 17.81520 82.79889 36907 ft 518 kts 111°
2026-05-05 02:36 17.79255 82.86952 36899 ft 511 kts 111°
2026-05-05 02:36 17.76992 82.93998 36897 ft 508 kts 111°
2026-05-05 02:37 17.74733 83.01016 36893 ft 508 kts 111°
2026-05-05 02:37 17.72472 83.08036 36893 ft 508 kts 111°
2026-05-05 02:38 17.70206 83.15061 36888 ft 509 kts 111°
2026-05-05 02:38 17.67934 83.22099 36887 ft 510 kts 111°
2026-05-05 02:39 17.65842 83.29213 36886 ft 512 kts 107°
2026-05-05 02:39 17.64045 83.36440 36887 ft 513 kts 106°
2026-05-05 02:40 17.62263 83.43687 36884 ft 513 kts 107°
2026-05-05 02:40 17.60450 83.50923 36887 ft 513 kts 107°
2026-05-05 02:41 17.58620 83.58154 36888 ft 513 kts 107°
2026-05-05 02:41 17.56800 83.65333 36886 ft 513 kts 107°
2026-05-05 02:42 17.54970 83.72551 36888 ft 513 kts 107°
2026-05-05 02:42 17.53136 83.79771 36886 ft 513 kts 107°
2026-05-05 02:43 17.51299 83.86997 36890 ft 513 kts 107°
2026-05-05 02:43 17.49463 83.94228 36893 ft 514 kts 107°
2026-05-05 02:44 17.47686 84.01489 36891 ft 515 kts 106°
2026-05-05 02:44 17.45927 84.08754 36890 ft 515 kts 106°
2026-05-05 02:45 17.44155 84.16021 36893 ft 515 kts 107°
2026-05-05 02:45 17.42372 84.23293 36893 ft 515 kts 107°
2026-05-05 02:46 17.40586 84.30564 36892 ft 516 kts 107°
2026-05-05 02:46 17.38796 84.37842 36892 ft 516 kts 107°
2026-05-05 02:47 17.37003 84.45121 36893 ft 516 kts 107°
2026-05-05 02:47 17.35217 84.52397 36895 ft 516 kts 106°
2026-05-05 02:48 17.33514 84.59656 36896 ft 517 kts 106°
2026-05-05 02:48 17.31821 84.66964 36894 ft 517 kts 106°
2026-05-05 02:49 17.30113 84.74279 36895 ft 517 kts 106°
2026-05-05 02:49 17.28396 84.81586 36896 ft 517 kts 106°
2026-05-05 02:50 17.26673 84.88898 36895 ft 517 kts 106°
2026-05-05 02:50 17.24948 84.96211 36896 ft 518 kts 106°
2026-05-05 02:51 17.23221 85.03522 36894 ft 518 kts 106°
2026-05-05 02:51 17.21492 85.10830 36896 ft 518 kts 106°
2026-05-05 02:52 17.19759 85.18140 36900 ft 518 kts 106°
2026-05-05 02:52 17.18022 85.25457 36898 ft 518 kts 107°
2026-05-05 02:53 17.16290 85.32763 36900 ft 518 kts 106°
2026-05-05 02:53 17.14607 85.40086 36901 ft 518 kts 106°
2026-05-05 02:54 17.12942 85.47409 36901 ft 518 kts 106°
2026-05-05 02:54 17.11281 85.54678 36905 ft 517 kts 106°
2026-05-05 02:55 17.09600 85.61992 36903 ft 517 kts 106°
2026-05-05 02:55 17.07914 85.69308 36902 ft 517 kts 106°
2026-05-05 02:56 17.06227 85.76616 36903 ft 517 kts 106°
2026-05-05 02:56 17.04537 85.83928 36905 ft 517 kts 106°
2026-05-05 02:57 17.02845 85.91236 36906 ft 517 kts 106°
2026-05-05 02:57 17.01152 85.98534 36906 ft 517 kts 106°
2026-05-05 02:58 16.99455 86.05838 36910 ft 517 kts 106°
2026-05-05 02:58 16.97766 86.13093 36907 ft 517 kts 106°
2026-05-05 02:59 16.96066 86.20384 36907 ft 517 kts 106°
2026-05-05 02:59 16.94364 86.27673 36910 ft 516 kts 106°
2026-05-05 03:00 16.92658 86.34966 36906 ft 516 kts 106°
2026-05-05 03:00 16.90950 86.42253 36913 ft 516 kts 106°
2026-05-05 03:01 16.89242 86.49529 36922 ft 516 kts 106°
2026-05-05 03:01 16.87540 86.56770 36913 ft 516 kts 106°
2026-05-05 03:02 16.85824 86.64055 36914 ft 516 kts 106°
2026-05-05 03:02 16.84104 86.71346 36912 ft 516 kts 106°
2026-05-05 03:03 16.82384 86.78625 36916 ft 516 kts 106°
2026-05-05 03:03 16.80658 86.85919 36917 ft 517 kts 106°
2026-05-05 03:04 16.78933 86.93195 36918 ft 517 kts 106°
2026-05-05 03:04 16.77216 87.00425 36919 ft 517 kts 106°
2026-05-05 03:05 16.75484 87.07708 36915 ft 517 kts 106°
2026-05-05 03:05 16.73749 87.14991 36924 ft 517 kts 106°
2026-05-05 03:06 16.72029 87.22282 36919 ft 517 kts 105°
2026-05-05 03:06 16.70612 87.28344 36921 ft 517 kts 105°
2026-05-05 03:07 16.68903 87.35647 36921 ft 518 kts 105°
2026-05-05 03:07 16.67189 87.42944 36921 ft 518 kts 105°
2026-05-05 03:08 16.65481 87.50196 36923 ft 518 kts 105°
2026-05-05 03:08 16.63757 87.57500 36924 ft 518 kts 105°
2026-05-05 03:09 16.62031 87.64804 36923 ft 519 kts 105°
2026-05-05 03:09 16.60310 87.72074 36926 ft 519 kts 105°
2026-05-05 03:10 16.58578 87.79381 36924 ft 519 kts 105°
2026-05-05 03:10 16.56838 87.86708 36925 ft 519 kts 105°
2026-05-05 03:11 16.55099 87.94017 36926 ft 520 kts 105°
2026-05-05 03:11 16.53358 88.01326 36926 ft 520 kts 105°
2026-05-05 03:12 16.51622 88.08598 36926 ft 520 kts 105°
2026-05-05 03:12 16.49874 88.15911 36927 ft 520 kts 105°
2026-05-05 03:13 16.48125 88.23217 36930 ft 520 kts 105°
2026-05-05 03:13 16.46375 88.30516 36926 ft 519 kts 105°
2026-05-05 03:14 16.44620 88.37820 36937 ft 519 kts 105°
2026-05-05 03:14 16.42866 88.45109 36933 ft 519 kts 105°
2026-05-05 03:15 16.41109 88.52401 36930 ft 518 kts 105°
2026-05-05 03:15 16.39352 88.59679 36934 ft 518 kts 105°
2026-05-05 03:16 16.37604 88.66910 36933 ft 518 kts 105°
2026-05-05 03:16 16.35842 88.74189 36935 ft 517 kts 105°
2026-05-05 03:17 16.34080 88.81452 36932 ft 517 kts 105°
2026-05-05 03:17 16.32319 88.88704 36932 ft 517 kts 105°
2026-05-05 03:18 16.30554 88.95958 36934 ft 516 kts 105°
2026-05-05 03:18 16.28791 89.03195 36938 ft 516 kts 105°
2026-05-05 03:19 16.26176 89.14002 36933 ft 515 kts 104°
2026-05-05 03:19 16.24474 89.21247 36933 ft 515 kts 104°
2026-05-05 03:20 16.22775 89.28486 36931 ft 515 kts 104°
2026-05-05 03:20 16.21068 89.35716 36937 ft 514 kts 104°
2026-05-05 03:21 16.19356 89.42939 36936 ft 514 kts 104°
2026-05-05 03:21 16.17653 89.50112 36933 ft 514 kts 104°
2026-05-05 03:22 16.15940 89.57320 36938 ft 513 kts 104°
2026-05-05 03:22 16.14224 89.64528 36935 ft 513 kts 104°
2026-05-05 03:23 16.12506 89.71732 36933 ft 513 kts 104°
2026-05-05 03:23 16.10788 89.78923 36939 ft 512 kts 104°
2026-05-05 03:24 16.09068 89.86114 36934 ft 512 kts 104°
2026-05-05 03:24 16.07346 89.93304 36934 ft 512 kts 104°
2026-05-05 03:25 16.05625 90.00479 36932 ft 511 kts 104°
2026-05-05 03:25 16.03915 90.07594 36932 ft 511 kts 104°
2026-05-05 03:26 16.02191 90.14760 36934 ft 511 kts 104°
2026-05-05 03:26 16.00485 90.21933 36934 ft 510 kts 104°
2026-05-05 03:27 15.98824 90.29096 36932 ft 510 kts 104°
2026-05-05 03:27 15.97163 90.36272 36932 ft 510 kts 104°
2026-05-05 03:28 15.95495 90.43437 36935 ft 510 kts 104°
2026-05-05 03:28 15.93821 90.50598 36930 ft 510 kts 104°
2026-05-05 03:29 15.92155 90.57710 36932 ft 510 kts 104°
2026-05-05 03:29 15.90477 90.64865 36935 ft 510 kts 104°
2026-05-05 03:30 15.88786 90.72066 36933 ft 510 kts 104°
2026-05-05 03:30 15.87114 90.79173 36934 ft 510 kts 104°
2026-05-05 03:31 15.85430 90.86320 36930 ft 510 kts 104°
2026-05-05 03:31 15.83744 90.93469 36927 ft 510 kts 104°
2026-05-05 03:32 15.82053 91.00620 36936 ft 510 kts 104°
2026-05-05 03:32 15.80361 91.07773 36931 ft 510 kts 104°
2026-05-05 03:33 15.78667 91.14918 36932 ft 510 kts 104°
2026-05-05 03:33 15.76971 91.22062 36936 ft 510 kts 104°
2026-05-05 03:34 15.75271 91.29211 36935 ft 510 kts 104°
2026-05-05 03:34 15.73569 91.36357 36942 ft 510 kts 104°
2026-05-05 03:35 15.71866 91.43498 36927 ft 510 kts 104°
2026-05-05 03:35 15.70158 91.50647 36930 ft 510 kts 104°
2026-05-05 03:36 15.68448 91.57795 36931 ft 510 kts 104°
2026-05-05 03:36 15.66749 91.64888 36932 ft 510 kts 104°
2026-05-05 03:37 15.65035 91.72031 36937 ft 510 kts 104°
2026-05-05 03:37 15.63320 91.79167 36935 ft 510 kts 104°
2026-05-05 03:38 15.61603 91.86301 36931 ft 509 kts 104°
2026-05-05 03:38 15.59886 91.93427 36930 ft 509 kts 104°
2026-05-05 03:39 15.58165 92.00554 36936 ft 509 kts 104°
2026-05-05 03:39 15.56430 92.07670 36928 ft 509 kts 104°
2026-05-05 03:40 15.54688 92.14776 36929 ft 509 kts 104°
2026-05-05 03:40 15.52943 92.21888 36931 ft 508 kts 104°
2026-05-05 03:41 15.51212 92.28946 36930 ft 508 kts 104°
2026-05-05 03:41 15.49469 92.36041 36932 ft 508 kts 104°
2026-05-05 03:42 15.47723 92.43138 36936 ft 507 kts 104°
2026-05-05 03:42 15.45978 92.50223 36928 ft 507 kts 104°
2026-05-05 03:43 15.44230 92.57308 36933 ft 507 kts 104°
2026-05-05 03:43 15.42488 92.64379 36934 ft 506 kts 104°
2026-05-05 03:44 15.40861 92.71482 36933 ft 506 kts 103°
2026-05-05 03:44 15.39291 92.78597 36930 ft 506 kts 103°
2026-05-05 03:45 15.37709 92.85709 36924 ft 506 kts 103°
2026-05-05 03:45 15.36111 92.92810 36931 ft 506 kts 103°
2026-05-05 03:46 15.34506 92.99906 36925 ft 506 kts 103°
2026-05-05 03:46 15.32899 93.06998 36937 ft 505 kts 103°
2026-05-05 03:47 15.31301 93.14040 36930 ft 505 kts 103°
2026-05-05 03:47 15.29693 93.21124 36928 ft 505 kts 103°
2026-05-05 03:48 15.28081 93.28209 36926 ft 505 kts 104°
2026-05-05 03:48 15.26468 93.35293 36921 ft 505 kts 104°
2026-05-05 03:49 15.24852 93.42373 36932 ft 505 kts 104°
2026-05-05 03:49 15.23234 93.49457 36928 ft 505 kts 104°
2026-05-05 03:50 15.21614 93.56536 36926 ft 505 kts 104°
2026-05-05 03:50 15.19993 93.63607 36925 ft 505 kts 104°
2026-05-05 03:51 15.18367 93.70691 36929 ft 505 kts 104°
2026-05-05 03:51 15.16742 93.77758 36924 ft 505 kts 104°
2026-05-05 03:52 15.15114 93.84831 36931 ft 505 kts 104°
2026-05-05 03:52 15.13487 93.91886 36925 ft 505 kts 104°
2026-05-05 03:53 15.11865 93.98910 36930 ft 505 kts 104°
2026-05-05 03:53 15.10232 94.05971 36929 ft 505 kts 104°
2026-05-05 03:54 15.08596 94.13037 36927 ft 505 kts 104°
2026-05-05 03:54 15.06957 94.20103 36927 ft 505 kts 104°
2026-05-05 03:55 15.05315 94.27171 36932 ft 505 kts 104°
2026-05-05 03:55 15.03670 94.34241 36939 ft 505 kts 104°
2026-05-05 03:56 15.02022 94.41312 36927 ft 506 kts 104°
2026-05-05 03:56 15.00371 94.48387 36930 ft 506 kts 104°
2026-05-05 03:57 14.98998 94.54266 36933 ft 506 kts 104°
2026-05-05 03:57 14.97071 94.62498 36928 ft 506 kts 104°
2026-05-05 03:58 14.95680 94.68435 36933 ft 506 kts 104°
2026-05-05 03:58 14.94029 94.75469 36935 ft 507 kts 104°
2026-05-05 03:59 14.92365 94.82551 36935 ft 507 kts 104°
2026-05-05 03:59 14.90698 94.89637 36930 ft 507 kts 104°
2026-05-05 04:00 14.89028 94.96721 36928 ft 507 kts 104°
2026-05-05 04:00 14.87358 95.03796 36939 ft 507 kts 104°
2026-05-05 04:01 14.85684 95.10877 36939 ft 507 kts 104°
2026-05-05 04:01 14.84032 95.17858 36929 ft 507 kts 104°
2026-05-05 04:02 14.82330 95.25034 36929 ft 507 kts 104°
2026-05-05 04:02 14.80652 95.32106 36928 ft 507 kts 104°
2026-05-05 04:03 14.78982 95.39129 36933 ft 507 kts 104°
2026-05-05 04:03 14.77298 95.46203 36927 ft 507 kts 104°
2026-05-05 04:04 14.75613 95.53269 36926 ft 507 kts 104°
2026-05-05 04:04 14.73925 95.60337 36928 ft 507 kts 104°
2026-05-05 04:05 14.72236 95.67402 36918 ft 507 kts 104°
2026-05-05 04:05 14.70545 95.74466 36925 ft 507 kts 104°
2026-05-05 04:06 14.68850 95.81532 36929 ft 507 kts 104°
2026-05-05 04:06 14.67155 95.88593 36925 ft 507 kts 104°
2026-05-05 04:07 14.65455 95.95660 36922 ft 507 kts 104°
2026-05-05 04:07 14.63755 96.02720 36921 ft 507 kts 104°
2026-05-05 04:08 14.62051 96.09789 36925 ft 507 kts 104°
2026-05-05 04:08 14.60345 96.16851 36927 ft 507 kts 104°
2026-05-05 04:09 14.58637 96.23916 36927 ft 507 kts 104°
2026-05-05 04:09 14.56937 96.30936 36928 ft 507 kts 104°
2026-05-05 04:10 14.55212 96.38050 36921 ft 508 kts 104°
2026-05-05 04:10 14.53496 96.45115 36924 ft 508 kts 104°
2026-05-05 04:11 14.51788 96.52141 36923 ft 508 kts 104°
2026-05-05 04:11 14.50065 96.59214 36924 ft 508 kts 104°
2026-05-05 04:12 14.48338 96.66296 36922 ft 509 kts 104°
2026-05-05 04:12 14.46609 96.73377 36921 ft 509 kts 104°
2026-05-05 04:13 14.44877 96.80462 36925 ft 509 kts 104°
2026-05-05 04:13 14.43142 96.87547 36928 ft 510 kts 104°
2026-05-05 04:14 14.41402 96.94644 36926 ft 510 kts 104°
2026-05-05 04:14 14.39659 97.01741 36921 ft 510 kts 104°
2026-05-05 04:15 14.37915 97.08834 36924 ft 511 kts 104°
2026-05-05 04:15 14.36167 97.15935 36922 ft 511 kts 104°
2026-05-05 04:16 14.34416 97.23037 36928 ft 511 kts 104°
2026-05-05 04:16 14.32665 97.30132 36927 ft 511 kts 104°
2026-05-05 04:17 14.30921 97.37185 36921 ft 511 kts 104°
2026-05-05 04:17 14.29154 97.44325 36921 ft 511 kts 104°
2026-05-05 04:18 14.27406 97.51374 36925 ft 511 kts 104°
2026-05-05 04:18 14.25646 97.58465 36927 ft 511 kts 104°
2026-05-05 04:19 14.23883 97.65560 36919 ft 511 kts 104°
2026-05-05 04:19 14.22119 97.72650 36919 ft 511 kts 104°
2026-05-05 04:20 14.20351 97.79741 36919 ft 511 kts 104°
2026-05-05 04:20 14.18582 97.86832 36922 ft 511 kts 105°
2026-05-05 04:21 14.16801 97.93960 36941 ft 518 kts 105°
2026-05-05 04:21 14.14991 98.01195 36924 ft 525 kts 104°
2026-05-05 04:22 14.13162 98.08498 36920 ft 528 kts 104°
2026-05-05 04:22 14.11381 98.15845 36931 ft 529 kts 100°
2026-05-05 04:23 14.11087 98.23391 36931 ft 528 kts 84°
2026-05-05 04:23 14.12579 98.30763 36943 ft 525 kts 73°
2026-05-05 04:24 14.14612 98.37988 36940 ft 523 kts 73°
2026-05-05 04:25 14.17531 98.48754 36943 ft 521 kts 74°
2026-05-05 04:25 14.19423 98.55961 36955 ft 520 kts 74°
2026-05-05 04:26 14.21315 98.63168 36954 ft 520 kts 74°
2026-05-05 04:26 14.23207 98.70361 36955 ft 520 kts 74°
2026-05-05 04:27 14.25098 98.77549 36955 ft 520 kts 74°
2026-05-05 04:27 14.26988 98.84735 36963 ft 520 kts 74°
2026-05-05 04:28 14.28878 98.91932 36966 ft 520 kts 74°
2026-05-05 04:28 14.29757 98.99253 36960 ft 520 kts 91°
2026-05-05 04:29 14.28743 99.06605 36958 ft 519 kts 105°
2026-05-05 04:29 14.26850 99.13719 36578 ft 516 kts 105°
2026-05-05 04:29 14.25890 99.17313 35820 ft 521 kts 105°
2026-05-05 04:30 14.24951 99.20912 35011 ft 521 kts 105°
2026-05-05 04:30 14.24028 99.24531 34138 ft 523 kts 105°
2026-05-05 04:30 14.23111 99.28173 33121 ft 526 kts 105°
2026-05-05 04:30 14.22196 99.31815 32140 ft 523 kts 105°
2026-05-05 04:31 14.21293 99.35408 31160 ft 514 kts 105°
2026-05-05 04:31 14.20391 99.38981 30316 ft 515 kts 105°
2026-05-05 04:31 14.19491 99.42535 29578 ft 510 kts 105°
2026-05-05 04:31 14.18769 99.46094 28829 ft 505 kts 97°
2026-05-05 04:32 14.18714 99.49693 28155 ft 500 kts 85°
2026-05-05 04:32 14.19238 99.53215 27509 ft 495 kts 77°
2026-05-05 04:32 14.20322 99.56557 26928 ft 488 kts 66°
2026-05-05 04:32 14.21664 99.59743 26245 ft 484 kts 66°
2026-05-05 04:33 14.23011 99.62915 25601 ft 482 kts 66°
2026-05-05 04:33 14.24338 99.66075 24947 ft 479 kts 66°
2026-05-05 04:33 14.25640 99.69222 24314 ft 476 kts 67°
2026-05-05 04:33 14.26918 99.72354 23681 ft 473 kts 67°
2026-05-05 04:34 14.28182 99.75475 22969 ft 471 kts 67°
2026-05-05 04:34 14.29434 99.78582 22294 ft 467 kts 67°
2026-05-05 04:34 14.30676 99.81662 21664 ft 462 kts 67°
2026-05-05 04:34 14.31902 99.84707 21048 ft 458 kts 67°
2026-05-05 04:35 14.33121 99.87731 20435 ft 454 kts 67°
2026-05-05 04:35 14.34328 99.90725 19832 ft 450 kts 67°
2026-05-05 04:35 14.35512 99.93660 19224 ft 447 kts 67°
2026-05-05 04:35 14.36701 99.96609 18634 ft 444 kts 67°
2026-05-05 04:36 14.37857 99.99484 18378 ft 420 kts 67°
2026-05-05 04:36 14.38946 100.02187 18171 ft 396 kts 67°
2026-05-05 04:36 14.39886 100.04761 17971 ft 375 kts 77°
2026-05-05 04:36 14.40100 100.07401 17761 ft 367 kts 96°
2026-05-05 04:37 14.39574 100.09953 17510 ft 365 kts 105°
2026-05-05 04:37 14.38881 100.12513 17247 ft 374 kts 105°
2026-05-05 04:37 14.38197 100.15122 16965 ft 378 kts 105°
2026-05-05 04:37 14.37532 100.17746 16682 ft 377 kts 105°
2026-05-05 04:38 14.36879 100.20353 16397 ft 374 kts 104°
2026-05-05 04:38 14.36233 100.22936 16120 ft 370 kts 104°
2026-05-05 04:38 14.35594 100.25494 15848 ft 366 kts 104°
2026-05-05 04:38 14.34962 100.28026 15583 ft 362 kts 104°
2026-05-05 04:39 14.34334 100.30534 15275 ft 361 kts 104°
2026-05-05 04:39 14.33705 100.33044 14938 ft 361 kts 104°
2026-05-05 04:39 14.33078 100.35542 14670 ft 359 kts 104°
2026-05-05 04:39 14.32454 100.38028 14416 ft 356 kts 104°
2026-05-05 04:40 14.31835 100.40495 14150 ft 355 kts 104°
2026-05-05 04:40 14.31217 100.42952 13876 ft 353 kts 104°
2026-05-05 04:40 14.30604 100.45394 13600 ft 352 kts 104°
2026-05-05 04:40 14.29994 100.47825 13322 ft 349 kts 104°
2026-05-05 04:41 14.29384 100.50247 13052 ft 347 kts 104°
2026-05-05 04:41 14.28789 100.52615 12791 ft 345 kts 104°
2026-05-05 04:41 14.28187 100.55007 12503 ft 344 kts 104°
2026-05-05 04:41 14.27589 100.57386 12232 ft 342 kts 105°
2026-05-05 04:42 14.26975 100.59715 12067 ft 331 kts 110°
2026-05-05 04:42 14.25825 100.61750 11758 ft 330 kts 133°
2026-05-05 04:42 14.24018 100.63130 11371 ft 319 kts 152°
2026-05-05 04:42 14.22082 100.64184 10972 ft 309 kts 151°
2026-05-05 04:43 14.20223 100.65245 10519 ft 302 kts 150°
2026-05-05 04:43 14.18410 100.66299 10010 ft 298 kts 150°
2026-05-05 04:43 14.16612 100.67343 9470 ft 295 kts 150°
2026-05-05 04:43 14.14824 100.68385 8818 ft 296 kts 149°
2026-05-05 04:44 14.13024 100.69435 8139 ft 297 kts 149°
2026-05-05 04:44 14.11226 100.70483 7500 ft 296 kts 149°
2026-05-05 04:44 14.09468 100.71506 7255 ft 286 kts 149°
2026-05-05 04:44 14.07734 100.72519 6814 ft 288 kts 149°
2026-05-05 04:45 14.05985 100.73539 6131 ft 289 kts 149°
2026-05-05 04:45 14.04272 100.74537 6016 ft 275 kts 149°
2026-05-05 04:45 14.02542 100.75320 5714 ft 270 kts 160°
2026-05-05 04:45 14.01363 100.75680 5520 ft 264 kts 163°
2026-05-05 04:46 13.99614 100.76166 5203 ft 259 kts 163°
2026-05-05 04:46 13.97315 100.76807 4837 ft 259 kts 163°
2026-05-05 04:46 13.96185 100.77131 4674 ft 259 kts 162°
2026-05-05 04:46 13.93873 100.77808 4270 ft 262 kts 162°
2026-05-05 04:47 13.92143 100.78323 3939 ft 254 kts 163°
2026-05-05 04:47 13.91005 100.78666 3794 ft 248 kts 163°
2026-05-05 04:47 13.89382 100.79141 3640 ft 237 kts 162°
2026-05-05 04:47 13.87786 100.79632 3540 ft 243 kts 163°
2026-05-05 04:48 13.86179 100.80108 3312 ft 243 kts 168°
2026-05-05 04:48 13.84492 100.80085 2996 ft 238 kts 190°
2026-05-05 04:48 13.82894 100.79733 2673 ft 231 kts 193°
2026-05-05 04:48 13.81373 100.79333 2392 ft 220 kts 194°
2026-05-05 04:49 13.79920 100.78945 2144 ft 215 kts 194°
2026-05-05 04:49 13.78516 100.78574 1855 ft 204 kts 194°
2026-05-05 04:49 13.77189 100.78224 1642 ft 190 kts 193°
2026-05-05 04:49 13.75945 100.77896 1359 ft 179 kts 194°
2026-05-05 04:50 13.74796 100.77593 1137 ft 161 kts 194°
2026-05-05 04:50 13.73770 100.77321 973 ft 148 kts 194°
2026-05-05 04:50 13.72749 100.77045 789 ft 155 kts 194°
2026-05-05 04:50 13.71711 100.76783 545 ft 152 kts 192°
2026-05-05 04:51 13.70694 100.76504 323 ft 149 kts 194°
2026-05-05 04:51 13.69695 100.76234 140 ft 147 kts 192°
2026-05-05 04:51 13.68705 100.75980 28 ft 143 kts 192°
2026-05-05 04:51 13.67825 100.75749 16 ft 114 kts 194°
2026-05-05 04:52 13.67195 100.75583 18 ft 71 kts 194°
2026-05-05 04:52 13.66937 100.75516 18 ft 25 kts 194°
2026-05-05 04:52 13.66772 100.75443 18 ft 26 kts 214°
2026-05-05 04:52 13.66687 100.75367 18 ft 10 kts 225°
2026-05-05 04:53 13.66652 100.75308 18 ft 10 kts 256°
2026-05-05 04:53 13.66693 100.75265 17 ft 11 kts 357°
2026-05-05 04:53 13.66844 100.75301 17 ft 30 kts 14°
2026-05-05 04:53 13.67028 100.75349 17 ft 27 kts 14°
2026-05-05 04:54 13.67211 100.75398 18 ft 27 kts 15°
2026-05-05 04:54 13.67393 100.75448 18 ft 27 kts 13°
2026-05-05 04:54 13.67559 100.75488 18 ft 24 kts 14°
2026-05-05 04:54 13.67708 100.75527 18 ft 17 kts 14°
2026-05-05 04:55 13.67820 100.75557 18 ft 17 kts 15°
2026-05-05 04:55 13.67931 100.75588 18 ft 17 kts 15°
2026-05-05 04:55 13.68044 100.75617 17 ft 17 kts 14°
2026-05-05 04:55 13.68156 100.75645 18 ft 17 kts 14°
2026-05-05 04:56 13.68268 100.75669 18 ft 17 kts 356°
2026-05-05 04:56 13.68327 100.75593 18 ft 14 kts 285°
2026-05-05 04:56 13.68353 100.75495 18 ft 14 kts 286°
2026-05-05 04:56 13.68380 100.75396 18 ft 14 kts 286°
2026-05-05 04:57 13.68406 100.75298 18 ft 14 kts 285°
2026-05-05 04:57 13.68432 100.75199 18 ft 14 kts 285°
2026-05-05 04:57 13.68437 100.75114 18 ft 11 kts 246°
2026-05-05 04:57 13.68374 100.75095 18 ft 8 kts 160°
2026-05-05 04:58 13.68324 100.75102 18 ft 6 kts 189°
2026-05-05 04:58 13.68303 100.75098 18 ft 2 kts 191°
2026-05-05 04:58 13.68284 100.75094 18 ft 3 kts 193°
2026-05-05 04:58 13.68263 100.75088 18 ft 2 kts 194°
2026-05-05 04:59 13.68260 100.75087 18 ft 0 kts 194°